www.pogodaiklimat.ru

Погода и климат >> Архив погоды >> Австралия >> Южная Австралия >> Сидуна


ПОГОДА в Сидуне

  • Прогноз погоды в Сидуне
  • Монитор погоды в Сидуне

АРХИВ ПОГОДЫ в Сидуне

Время (UTC), дата Ветер
(напр.,м/с)
 
Видим.   Явления Облачность Т
(С)
Тd
(С)
f
(%)
Тe
(С)
Тes
(С)
Комфортность P
(гПа)
Po
(гПа)
Тmin
(С)
Tmax
(С)
R
(мм)
R24
(мм)
S
(см)
22 15.04 В 3 н/о н/о +15.2 +13.2 88 +14 +14 1014.3 1012.4
23 15.04 В 3 н/о 6/0
[]
+19.6 +13.3 67 +22 +22 комфорт 1014.9 1013.0
00 16.04 Ю 1 н/о н/о +22.7 +12.3 52 +25 +25 комфорт 1014.8 1012.9
01 16.04 З 3 н/о н/о +25.8 +12.6 44 +28 +28 жарко 1014.0 1012.1
02 16.04 З 3 н/о 5/0
[]
+29.1 +12.9 37 +30 +30 жарко 1013.2 1011.3 +11.8
03 16.04 СЗ 3 н/о н/о +34.5 +8.3 20 +33 +33 жарко 1012.2 1010.3
04 16.04 СЗ 7 н/о н/о +36.5 +8.4 18 +35 +35 очень
жарко
1011.0 1009.1
05 16.04 СЗ 8 н/о 4/0
[]
+37.3 +7.3 16 +35 +35 очень
жарко
1010.1 1008.2
06 16.04 С 8 н/о н/о +37.9 +5.8 14 +35 +35 очень
жарко
1009.7 1007.8
07 16.04 С 6 н/о н/о +37.0 +5.1 14 +34 +34 очень
жарко
1009.5 1007.6
08 16.04 С 5 н/о 10/0
[]
+35.8 +4.2 14 +33 +33 жарко 1009.5 1007.6
09 16.04 С 4 н/о н/о +33.3 +4.1 16 +31 +31 жарко 1009.8 1007.9
10 16.04 З 3 н/о н/о +29.5 +8.5 27 +29 +29 жарко 1010.9 1009.0
11 16.04 СЗ 4 н/о 9/0 2000 м
[]
+27.7 +12.5 39 +29 +29 жарко 1012.1 1010.2
12 16.04 В 2 н/о н/о +25.7 +9.9 37 +26 +26 жарко 1011.5 1009.6
13 16.04 СВ 5 н/о н/о +27.3 +8.7 31 +27 +27 жарко 1011.5 1009.6
14 16.04 С 4 н/о 10/0
[]
+28.5 +6.0 24 +27 +27 жарко 1010.9 1009.0 +38.7
15 16.04 С 4 н/о н/о +25.8 +4.9 26 +25 +25 комфорт 1010.3 1008.4
16 16.04 С 5 н/о н/о +27.2 +4.9 24 +26 +26 жарко 1011.6 1009.7
17 16.04 Ю 3 н/о 10/0
[]
+24.6 +12.9 48 +27 +27 жарко 1012.3 1010.4
18 16.04 ЮВ 4 н/о н/о +22.0 +12.8 56 +25 +25 комфорт 1011.5 1009.6
19 16.04 З 1 н/о н/о +21.3 +12.7 58 +24 +24 комфорт 1012.6 1010.7
20 16.04 Ю 5 н/о 8/0
[]
+21.2 +15.5 70 +24 +24 комфорт 1014.2 1012.3
21 16.04 Ю 6 н/о н/о +20.7 +15.7 73 +24 +24 комфорт 1014.8 1012.9
22 16.04 Ю 6 н/о н/о +20.2 +16.6 80 +23 +23 комфорт 1015.8 1013.9
23 16.04 Ю 7 н/о 3/0
[]
+21.2 +17.8 81 +25 +25 комфорт 1016.7 1014.8
00 17.04 Ю 8 н/о н/о +22.1 +18.1 78 +27 +27 душно 1018.4 1016.5
01 17.04 Ю 9 н/о н/о +22.7 +15.8 65 +27 +27 душно 1018.7 1016.8
02 17.04 Ю 8 н/о н/о +23.2 +15.8 63 +28 +28 душно 1019.4 1017.5 +19.9
03 17.04 ЮЗ 8 н/о н/о +22.7 +16.5 68 +27 +27 душно 1019.6 1017.7
04 17.04 ЮЗ 8 н/о н/о +22.5 +16.3 68 +27 +27 душно 1019.4 1017.5
05 17.04 Ю 10 н/о н/о +22.1 +15.2 65 +26 +26 душно 1019.2 1017.3
06 17.04 Ю 9 н/о н/о +21.5 +14.9 66 +25 +25 комфорт 1020.0 1018.1
07 17.04 Ю 8 н/о н/о +21.1 +14.5 66 +24 +24 комфорт 1020.5 1018.6
08 17.04 Ю 8 н/о н/о +19.8 +14.0 69 +21 +21 комфорт 1021.3 1019.4
09 17.04 Ю 7 н/о н/о +18.8 +13.4 71 +19 +19 1022.2 1020.3
10 17.04 Ю 6 н/о н/о +18.7 +14.2 75 +19 +19 1023.1 1021.2
11 17.04 Ю 7 н/о 10/10 600 м
[]
+18.6 +14.1 75 +19 +19 1023.5 1021.6
12 17.04 Ю 7 н/о н/о +17.6 +13.3 76 +17 +17 1024.0 1022.1
13 17.04 ЮВ 7 н/о н/о +17.2 +12.5 74 +16 +16 1024.7 1022.8
14 17.04 ЮВ 6 н/о н/о +16.6 +11.7 73 +16 +16 1024.4 1022.5 +29.9
15 17.04 ЮВ 6 н/о н/о +16.3 +11.2 72 +15 +15 1024.2 1022.3
16 17.04 ЮВ 4 н/о н/о +15.0 +10.8 76 +14 +14 1024.2 1022.3
17 17.04 ЮВ 5 н/о н/о +14.4 +9.8 74 +13 +13 1024.1 1022.2
18 17.04 ЮВ 5 н/о н/о +13.5 +9.0 74 +12 +12 1023.7 1021.8
19 17.04 ЮВ 5 н/о н/о +13.2 +8.5 73 +11 +11 1023.7 1021.8
20 17.04 ЮВ 5 н/о н/о +12.8 +8.1 73 +11 +11 1023.9 1022.0
21 17.04 ЮВ 5 н/о н/о +12.9 +8.0 72 +11 +11 1024.2 1022.3
22 17.04 ЮВ 6 н/о н/о +13.9 +8.9 72 +12 +12 1024.6 1022.7
23 17.04 ЮВ 7 н/о н/о +16.3 +9.5 64 +15 +15 1024.9 1023.0
00 18.04 ЮВ 7 н/о н/о +18.0 +9.6 58 +17 +17 1024.8 1022.9
01 18.04 В 4 н/о н/о +20.1 +9.9 52 +22 +22 комфорт 1024.6 1022.7
02 18.04 ЮВ 3 н/о н/о +21.2 +9.4 47 +23 +23 комфорт 1023.9 1022.0 +12.7
03 18.04 Ю 5 н/о н/о +22.0 +10.5 48 +24 +24 комфорт 1022.7 1020.8
04 18.04 Ю 6 н/о н/о +21.9 +11.0 50 +24 +24 комфорт 1021.5 1019.6
05 18.04 Ю 7 н/о н/о +21.9 +11.3 51 +24 +24 комфорт 1020.5 1018.6
06 18.04 Ю 7 н/о н/о +21.2 +12.3 57 +23 +23 комфорт 1020.3 1018.4
07 18.04 Ю 7 н/о н/о +20.7 +13.4 63 +23 +23 комфорт 1019.9 1018.0
08 18.04 Ю 7 н/о н/о +19.4 +14.6 74 +21 +21 комфорт 1019.6 1017.7
09 18.04 Ю 6 н/о н/о +18.4 +14.9 80 +18 +18 1019.6 1017.7
10 18.04 Ю 5 н/о н/о +18.1 +15.4 84 +18 +18 1020.2 1018.3
11 18.04 В 2 н/о 3/0
[]
+16.8 +14.1 84 +17 +17 1020.4 1018.5
12 18.04 В 1 н/о н/о +15.0 +12.5 85 +15 +15 1020.5 1018.6
13 18.04 штиль 0 н/о н/о +14.9 +12.8 87 +15 +15 1020.5 1018.6
14 18.04 штиль 0 н/о 1/0
[]
+12.8 +10.3 85 +12 +12 1019.4 1017.5 +23.2
15 18.04 СВ 2 н/о н/о +12.7 +10.8 88 +12 +12 1018.7 1016.8
16 18.04 В 2 н/о н/о +12.7 +10.8 88 +12 +12 1018.1 1016.2
17 18.04 СВ 6 н/о н/о +17.6 +12.1 70 +17 +17 1017.0 1015.1
18 18.04 СВ 6 н/о н/о +17.4 +11.0 66 +17 +17 1015.9 1014.0
19 18.04 СВ 6 н/о н/о +21.7 +8.9 44 +23 +23 комфорт 1015.6 1013.7
20 18.04 С 9 н/о н/о +23.5 +6.7 34 +24 +24 комфорт 1015.5 1013.6
21 18.04 С 9 н/о н/о +23.6 +5.5 31 +24 +24 комфорт 1015.9 1014.0
22 18.04 СВ 9 н/о н/о +24.7 +5.0 28 +24 +24 комфорт 1016.1 1014.2
23 18.04 СВ 8 н/о 5/0
[]
+25.7 +4.8 26 +25 +25 комфорт 1016.9 1015.0
00 19.04 С 8 н/о н/о +27.1 +4.8 24 +26 +26 жарко 1017.4 1015.5
01 19.04 С 12 н/о н/о +29.6 +4.3 20 +28 +28 жарко 1016.9 1015.0
02 19.04 С 12 6000 м 9/9 200 м
[]
+32.1 +4.8 18 +30 +30 жарко 1016.3 1014.4 +12.4
03 19.04 С 13 н/о н/о +32.0 +3.9 17 +30 +30 жарко 1015.3 1013.4
04 19.04 С 10 н/о н/о +32.4 +4.2 17 +30 +30 жарко 1014.1 1012.2
05 19.04 С 10 н/о 9/0
[]
+32.5 +3.5 16 +30 +30 жарко 1013.4 1011.5
06 19.04 С 11 н/о н/о +34.0 +3.7 15 +31 +31 жарко 1013.3 1011.4
07 19.04 С 11 н/о н/о +34.2 +4.8 16 +32 +32 жарко 1012.9 1011.0
08 19.04 С 9 н/о 10/0
[]
+32.1 +4.8 18 +30 +30 жарко 1012.9 1011.0
09 19.04 С 6 н/о н/о +30.1 +4.7 20 +28 +28 жарко 1013.2 1011.3
10 19.04 СВ 6 н/о н/о +29.3 +4.7 21 +28 +28 жарко 1013.6 1011.7
11 19.04 СВ 4 н/о 6/0
[]
+26.0 +4.5 25 +25 +25 комфорт 1013.9 1012.0
12 19.04 СВ 4 н/о н/о +23.4 +4.4 29 +23 +23 комфорт 1013.9 1012.0
13 19.04 СВ 6 н/о н/о +24.4 +5.2 29 +24 +24 комфорт 1013.7 1011.8
14 19.04 СВ 7 н/о н/о +24.4 +4.7 28 +24 +24 комфорт 1013.1 1011.2 +35.6
15 19.04 СВ 10 н/о н/о +24.7 +5.0 28 +24 +24 комфорт 1012.6 1010.7
16 19.04 СВ 8 н/о н/о +24.2 +4.6 28 +24 +24 комфорт 1012.2 1010.3
17 19.04 СВ 8 н/о н/о +24.7 +4.5 27 +24 +24 комфорт 1011.9 1010.0
18 19.04 СВ 9 н/о н/о +25.2 +4.3 26 +25 +25 комфорт 1011.2 1009.3
19 19.04 СЗ 5 н/о н/о +24.2 +5.5 30 +24 +24 комфорт 1013.4 1011.5
20 19.04 С 3 н/о 10/0
[]
+22.2 +4.7 32 +22 +22 комфорт 1013.4 1011.5
21 19.04 СВ 4 н/о н/о +19.9 +4.4 36 +21 +21 комфорт 1013.5 1011.6
22 19.04 СВ 5 н/о н/о +21.2 +4.7 34 +22 +22 комфорт 1013.2 1011.3
23 19.04 СЗ 4 н/о 10/0
[]
+21.4 +15.5 69 +25 +25 комфорт 1014.3 1012.4
00 20.04 З 4 н/о н/о +20.8 +18.0 84 +25 +25 комфорт 1013.9 1012.0
01 20.04 З 2 н/о н/о +21.4 +18.0 81 +26 +26 душно 1013.8 1011.9
02 20.04 СЗ 3 н/о 8/0
[]
+24.0 +16.5 63 +27 +27 жарко 1013.1 1011.2 +19.4
03 20.04 ЮЗ 5 н/о н/о +20.8 +18.4 86 +25 +25 комфорт 1012.3 1010.4
04 20.04 ЮЗ 9 н/о н/о +20.4 +18.0 86 +23 +23 комфорт 1012.0 1010.1
05 20.04 ЮЗ 7 н/о 10/10 200 м
[]
+20.3 +18.2 88 +23 +23 комфорт 1011.1 1009.2
06 20.04 З 8 н/о н/о +19.5 +16.9 85 +21 +21 комфорт 1013.0 1011.1
07 20.04 ЮЗ 10 н/о н/о +17.4 +14.7 84 +16 +16 1014.4 1012.5
08 20.04 ЮЗ 9 н/о 10/10 300 м
[]
+16.2 +13.3 83 +14 +14 1015.6 1013.7
09 20.04 ЮЗ 9 н/о н/о +15.6 +13.1 85 +14 +14 1017.9 1016.0
10 20.04 ЮЗ 11 н/о н/о +14.8 +13.3 91 +12 +12 1019.5 1017.6
11 20.04 ЮЗ 6 н/о туман местами 10/10 300 м
[]
+14.6 +13.8 95 +13 +13 1018.7 1016.8 9
12 20.04 ЮЗ 8 н/о н/о +14.4 +12.8 90 +12 +12 1018.9 1017.0
13 20.04 ЮЗ 6 н/о н/о +15.0 +11.6 80 +13 +13 1018.7 1016.8
14 20.04 ЮЗ 8 н/о {туман} 10/10 1000 м
[]
+15.8 +9.9 68 +14 +14 1019.3 1017.4 +25.7
15 20.04 ЮЗ 6 н/о н/о +16.0 +9.2 64 +15 +15 1019.5 1017.6
16 20.04 ЮЗ 7 н/о н/о +15.8 +8.8 63 +14 +14 1019.4 1017.5
17 20.04 ЮЗ 6 н/о {туман} 1/1 1000 м
[]
+15.6 +8.6 63 +14 +14 1019.0 1017.1 4
18 20.04 ЮЗ 6 н/о н/о +15.3 +9.0 66 +14 +14 1019.2 1017.3
19 20.04 ЮЗ 5 н/о н/о +15.2 +8.9 66 +14 +14 1019.5 1017.6
20 20.04 ЮЗ 6 н/о н/о +15.3 +8.5 64 +14 +14 1019.7 1017.8
21 20.04 ЮЗ 6 н/о н/о +15.3 +9.9 70 +14 +14 1020.2 1018.3
22 20.04 ЮЗ 7 н/о н/о +15.4 +11.8 79 +14 +14 1021.4 1019.5
23 20.04 ЮЗ 5 н/о 1/1 1500 м
[]
+16.4 +10.7 69 +16 +16 1022.2 1020.3 12
00 21.04 Ю 6 н/о н/о +17.5 +9.4 59 +17 +17 1023.0 1021.1
01 21.04 Ю 7 н/о н/о +17.7 +10.1 61 +17 +17 1023.4 1021.5
02 21.04 ЮЗ 8 н/о 10/10 1500 м
[]
+16.6 +11.3 71 +15 +15 1023.8 1021.9 +13.5
03 21.04 ЮЗ 7 н/о н/о +17.1 +11.2 68 +16 +16 1023.5 1021.6
04 21.04 Ю 5 н/о н/о +17.8 +9.9 60 +17 +17 1023.1 1021.2
05 21.04 Ю 4 н/о 10/10 1000 м
[]
+18.9 +8.6 51 +19 +19 1022.9 1021.0
06 21.04 Ю 6 н/о н/о +18.4 +8.4 52 +18 +18 1023.0 1021.1
07 21.04 Ю 7 н/о н/о +17.9 +8.2 53 +17 +17 1023.2 1021.3
08 21.04 Ю 6 н/о 1/0 2000 м
[]
+16.3 +11.7 74 +15 +15 1023.7 1021.8
09 21.04 Ю 4 н/о н/о +15.0 +10.4 74 +14 +14 1024.3 1022.4
10 21.04 Ю 5 н/о н/о +15.1 +10.3 73 +14 +14 1024.9 1023.0
11 21.04 ЮВ 4 н/о 9/9 600 м
[]
+14.5 +10.9 79 +13 +13 1025.4 1023.5
12 21.04 ЮВ 4 н/о н/о +13.7 +11.0 84 +12 +12 1025.9 1024.0
13 21.04 ЮВ 3 н/о н/о +12.2 +10.3 88 +11 +11 1026.0 1024.1
14 21.04 ЮВ 3 н/о в посл. час дождь {туман} 9/9 1500 м
[]
+12.6 +10.8 89 +11 +11 1025.8 1023.9 +19.7
15 21.04 В 2 н/о н/о +11.2 +9.6 90 +10 +10 1025.7 1023.8
16 21.04 Ю 3 н/о н/о +13.1 +11.7 91 +12 +12 1025.6 1023.7
17 21.04 В 3 н/о {туман} 3/3 1000 м
[]
+11.7 +10.1 90 +10 +10 1025.2 1023.3 0.8
18 21.04 СВ 4 н/о н/о +9.9 +8.8 93 +7 +7 1025.2 1023.3
19 21.04 В 3 н/о н/о +9.4 +8.6 95 +7 +7 1025.2 1023.3
20 21.04 В 2 н/о 10/10 1000 м
[]
+10.3 +9.5 95 +9 +9 1025.9 1024.0
21 21.04 В 2 н/о н/о +10.4 +9.6 95 +9 +9 1026.5 1024.6
22 21.04 СВ 1 н/о н/о +10.6 +9.8 95 +11 +11 1027.2 1025.3
23 21.04 СВ 2 н/о 4/4 1500 м
[]
+12.4 +11.3 93 +12 +12 1027.8 1025.9 0.8
00 22.04 В 4 н/о н/о +15.2 +10.6 74 +14 +14 1028.1 1026.2
01 22.04 В 6 н/о н/о +17.6 +9.2 58 +17 +17 1027.8 1025.9
02 22.04 ЮВ 6 н/о {туман} 9/9 1000 м
[]
+18.5 +9.0 54 +18 +18 1027.3 1025.4 +9.3
03 22.04 Ю 6 н/о н/о +18.7 +8.7 52 +19 +19 1026.7 1024.8
04 22.04 Ю 6 н/о н/о +18.3 +9.1 55 +18 +18 1026.3 1024.4
05 22.04 Ю 6 н/о {туман} н/о +18.7 +8.7 52 +19 +19 1026.2 1024.3 0.2
06 22.04 Ю 7 н/о н/о +18.2 +8.5 53 +18 +18 1026.2 1024.3
07 22.04 Ю 7 н/о н/о +17.8 +8.4 54 +17 +17 1026.2 1024.3
08 22.04 Ю 7 н/о н/о +17.0 +8.9 59 +16 +16 1026.7 1024.8
09 22.04 Ю 6 н/о н/о +15.8 +9.9 68 +15 +15 1027.1 1025.2
10 22.04 Ю 6 н/о н/о +15.7 +10.5 71 +14 +14 1027.2 1025.3
11 22.04 ЮВ 6 н/о н/о +15.2 +10.6 74 +14 +14 1027.4 1025.5
12 22.04 ЮВ 4 н/о н/о +14.4 +10.4 77 +13 +13 1027.5 1025.6
13 22.04 ЮВ 5 н/о н/о +14.3 +10.1 76 +13 +13 1027.3 1025.4
14 22.04 ЮВ 4 н/о н/о +12.7 +10.1 84 +11 +11 1027.3 1025.4 +19.3
15 22.04 ЮВ 4 н/о н/о +12.4 +10.1 86 +10 +10 1027.1 1025.2
16 22.04 ЮВ 4 н/о н/о +11.1 +9.0 87 +9 +9 1027.0 1025.1
17 22.04 ЮВ 4 н/о н/о +10.5 +8.3 86 +8 +8 1026.9 1025.0
18 22.04 В 3 н/о н/о +8.7 +7.3 91 +6 +6 1026.5 1024.6
19 22.04 В 3 н/о н/о +6.9 +5.8 93 +4 +4 1026.6 1024.7
20 22.04 С 2 н/о н/о +7.3 +6.6 95 +5 +5 1026.9 1025.0
21 22.04 штиль 0 н/о н/о +5.8 +4.8 93 +5 +5 1027.3 1025.4

 

Местоположение метеостанции Сидуна (Южная Австралия, Австралия): широта -32.13 долгота 133.70 высота над уровнем моря 16 м.

В архиве по умолчанию представлена погода в Сидуне за последнюю неделю. Архивные данные за месяц целиком и за предыдущие месяцы, начиная с января 2011 года, Вы можете получить, выбрав интересующий диапазон дат из раскрывающегося списка и нажав кнопку "Ввод!".


*Определитесь, кто Вы:
робот инопланетянин человек

Внимание! Время в таблицах - всемирное. Для получения местного времени необходимо прибавить поправку, которая равна 9.5 ч.

Смотрите также архив погоды в соседних городах и на ближайших метеорологических станциях:

Погода в Миннипа Пирса (Южная Австралия, Австралия) (158 км)
Погода в Таркуле (Южная Австралия, Австралия) (178 км)
Погода в Уудинне (Южная Австралия, Австралия) (193 км)
Погода в Наллаборе (Южная Австралия, Австралия) (275 км)
Погода в Колте (Южная Австралия, Австралия) (295 км)
Погода в Камминсе (Южная Австралия, Австралия) (302 км)
Погода на Аэродроме Вумера (Южная Австралия, Австралия) (314 км)
Погода в Кливе аэропорту (Южная Австралия, Австралия) (316 км)
Погода в Порт-Линкольне (Южная Австралия, Австралия) (341 км)
Погода в Олимпик Дэм (Южная Австралия, Австралия) (354 км)

Пояснения к столбцам:

Ветер - указаны скорость ветра в м/с - средняя за 10 мин, порывы в срок и между сроками (в фигурных скобках) и направление, откуда дует ветер: С - северный, СВ - северо-восточный, В - восточный, ЮВ - юго-восточный, Ю - южный, ЮЗ - юго-западный, З - западный, СЗ - северо-западный.
Видимость - горизонтальная дальность видимости в метрах или километрах. При видимости от 1 до 10 км при отсутствии осадков обычно наблюдается дымка, при ухудшении видимости до 1 км и менее - туман. В сухую погоду видимость может ухудшаться дымом, пылью или мглою.
Явления - указаны атмосферные явления, наблюдавшиеся в срок или в последний час перед сроком; фигурными скобками обозначены явления, наблюдавшиеся между сроками (за 1-3 часа до срока); квадратными скобками обозначены град или гололедные отложения с указанием их диаметра в мм.
Облачность - указаны через наклонную черту общая и нижняя облачность в баллах и высота нижней границы облаков в метрах; квадратными скобками обозначены формы облаков: Ci - перистые, Cs - перисто-слоистые, Cc - перисто-кучевые, Ac - высококучевые, As - высокослоистые, Sc - слоисто-кучевые, Ns - слоисто-дождевые, Cu - кучевые, Cb - кучево-дождевые. Подробнее классификацию облаков см. в Атласе облаков (PDF).
T - Температура воздуха - температура, измеренная на высоте 2 м над землей.
Td - Температура точки росы - температура, при понижении до которой содержащийся в воздухе водяной пар достигнет насыщения.
f - Относительная влажность воздуха - влажноcть воздуха, измеренная на высоте 2 м над землей.
Te - Эффективная температура - температура, которую ощущает одетый по сезону человек в тени. Характеристика душности погоды. При расчете учитывается влияние влажности воздуха и скорости ветра на теплоощущения человека.
Tes - Эффективная температура на солнце - температура, которую ощущает человек, с поправкой на солнечный нагрев. Характеристика знойности погоды. Зависит от высоты солнца над горизонтом, облачности и скорости ветра. Ночью, в пасмурную погоду, а также при ветре 12 м/с и более поправка равна нулю.
P - Атмосферное давление - приведенное к уровню моря атмосферное давление.
Po - Атмосферное давление - измеренное на уровне метеостанции атмосферное давление.
Tmin - Минимальная температура - минимум температуры воздуха на высоте 2 м над землей.
Tmax - Максимальная температура - максимум температуры воздуха на высоте 2 м над землей.
R - Количество осадков - Количество выпавших осадков за период времени, мм. При наведении курсора мыши на число - период времени, за который выпало указанное количество осадков.
R24 - Количество осадков - Количество выпавших осадков за 24 часа, мм.
S - Снежный покров - Высота снежного покрова, см. При наведении курсора мыши на число - состояние снежного покрова и степень покрытия местности в баллах.